Погода в Львовском

Россия / Краснодарский край     44°59′53″N   38°37′48″E
темп.,
°C
ветер,
м/с
пор.,
м/с
влажн.,
%
обл.,
%
осадки,
мм/ч
давл.,
гПа
погр.,
м
16 мая, вс
вс1600:00+17с119122 0.0 101117
03:00+16ссв2295100 0.9 101138
06:00+17св239499 0.1 101081
09:00+21всв2483100 0.1 1009444
12:00+26всв4671100 0.0 1006934
15:00+28всв566447 0.0 10051418
18:00+25всв58740 0.0 1003352
21:00+20всв35915 0.0 100279
17 мая, пн
пн1700:00+20ююв23945 0.0 100254
03:00+17з1193100 0.0 100311
06:00+17ююз3782100 0.0 1005237
09:00+21юз356585 0.0 1006470
12:00+24зюз335995 0.1 1008969
15:00+23з656325 0.1 1008922
18:00+21зсз347233 0.0 1009472
21:00+16з3587100 0.0 1011109
18 мая, вт
вт1800:00+14юз488994 0.0 1011175
03:00+13зюз229490 0.0 101141
06:00+13ююв249376 0.0 1012112
09:00+19юз357135 0.0 1012695
12:00+23юз56550 0.0 10111651
15:00+24юз565313 0.0 10111779
18:00+21ююз3570100 0.0 1011231
21:00+16ю348235 0.0 101163
19 мая, ср
ср1900:00+16юз3681100 0.0 1012178
03:00+15ююз379220 0.3 1013238
06:00+14зюз38923 0.1 1014256
09:00+19зюз57660 0.2 1015981
12:00+22зюз68523 0.1 10162124
15:00+22зюз67500 0.1 10171959
18:00+20зюз34640 0.0 1016421
21:00+14з11800 0.0 101711
20 мая, чт
чт2000:00+12в22860 0.0 101614
03:00+11вюв23890 0.0 101534
06:00+12в38915 0.0 1014223
09:00+19в68737 0.0 1012566
12:00+24в67590 0.0 1010873
15:00+26в675374 0.0 10081040
18:00+24всв6117123 0.0 1007542
21:00+20в488696 0.0 1006197